BREEZE-M DEB (TANK), 37187

Orbit data source: Space-Track

BREEZE-M DEB (TANK), 37187 is space debris in HEO originally from a launch on Thu, 14 Oct 2010 UTC launched from the Tyuratam Missile And Space Complex (TTMTR). Debris objects in space refer to the collection of defunct objects orbiting the Earth. Examples of debris include non-operational satellites, rocket bodies, and fragments generated from explosions, collisions, or faulty payload assembly.

Loading next visibility...
Identifier
37187, 2010-053C
Orbit
HEO
Country
Flag of CISCIS
Related business
Manufacturer
Khrunichev
Mission
Spacecraft
Bus & Motor
BRIZ TANK, Unknown motor
Mass
~1,000 kg wet, 1,000 kg dry
Launch date (UTC)
2010-10-14 (15 years ago)
Launch vehicle
Unknown
Launch site
Tyuratam Missile And Space Complex (TTMTR)
Object type
Payload
Rocket body
Debris
Shape & HBR
Torus, 2.0 m
Radar Cross Section
8.218 m², Large (>1 m²)

Expand to show TLE details & history
Last TLE update: 11 hours ago

TLE from 11 hours ago
0 BREEZE-M DEB (TANK)
1 37187U 10053C   25355.14482187  .00002208  00000-0  57405-3 0  9996
2 37187  49.5477 297.1865 5114493  84.4909 329.3358  5.39800704292050
Epoch: 2025-12-21T03:28Z
TLE epoch observation values (Epoch: 2025-12-21T03:28:32.609Z)
Latitude
-0.00005°
Longitude
155.07359°
Altitude
3,282.657 km
Speed
7.314 km/s
True Right ascension
19h 48m 41s
True Declination
0° 00' 00"
Sunlit
Object was in daylight at epoch
Visualization orbit readout
Latitude
Unknown
Longitude
Unknown
Altitude
Unknown
Speed
Unknown
Apparent Right ascension
Unknown
Apparent Declination
Unknown
Sunlit
N/A
Visualization observer readout
Local Sidereal Time
13:57:30
Azimuth
Unknown
Elevation
Unknown
Doppler factor
Unknown
Orbital elements
Apogee altitude
14,370.732 km
Perigee altitude
328.588 km
Semi-major axis
13,727.797 km
Eccentricity
0.51145
Inclination
49.5477°
RAAN
297.1865°
Arg. of periapsis
84.4909°
True anomaly
275.61706°
Mean anomaly
329.3358°
Eccentric anomaly
305.47021°
Mean motion
1.3494 °/min
Orbital period
266.78 mins
BSTAR
0.00057405
Loading maneuver chart data...
Computing Atmospheric mass density...
Loading historical data...
Loading historical data...
Loading historical data...
Loading historical data...
Loading historical data...
Loading historical data...
Loading historical data...
Other satellites on launch #53 in the year 2010 (2010-10-14 UTC)

Documentation

Showing up to 5 results
|